Date String (YYYY-MM-DD hh:mm:ss) UTC,Instrument flags,Ambient pressure (hPa),Sample flow (lpm),Bypass flow (lpm),Sample temperature (°C),Ambient temperature (°C),ASC tube jacket temperature (°C),LED temperature (°C),Box temperature (°C),Sample RH (%),Span deviation,Mass concentration (μg/m³),Mass concentration (μg/m³),Mass concentration (μg/m³)
DateTimeUTC,F1_M11,P_M11,Q1_M11,Q2_M11,T1_M11,T2_M11,T3_M11,T4_M11,T5_M11,U1_M11,ZSPAN_M11,X0_M11,X2_M11,X1_M11
2022-04-30 09:00:00,,0823.5,5.02,0.00,23.5,22.5,00.0,32.5,25.2,10.7,0000.0,0003.77,0001.98,0001.25
2022-04-30 09:01:00,,0823.5,4.99,0.00,23.5,22.5,00.0,32.5,25.2,10.5,0000.0,0003.78,0001.96,0001.26
2022-04-30 09:02:00,,0823.6,5.00,0.00,23.5,22.4,00.0,32.5,25.2,10.6,0000.0,0003.87,0002.00,0001.27
2022-04-30 09:03:00,,0823.4,4.99,0.00,23.5,22.4,00.0,32.5,25.1,10.6,0000.0,0003.87,0002.01,0001.29
2022-04-30 09:04:00,,0823.5,4.99,0.00,23.5,22.4,00.0,32.5,25.1,10.7,0000.0,0003.58,0001.99,0001.32
2022-04-30 09:05:00,,0823.4,5.02,0.00,23.5,22.4,00.0,32.5,25.1,10.6,0000.0,0003.45,0002.01,0001.32
2022-04-30 09:06:00,,0823.4,4.99,0.00,23.4,22.3,00.0,32.5,25.2,10.7,0000.0,0003.44,0002.02,0001.33
2022-04-30 09:07:00,,0823.4,4.98,0.00,23.4,22.3,00.0,32.5,25.2,10.6,0000.0,0003.62,0002.08,0001.36
2022-04-30 09:08:00,,0823.3,5.02,0.00,23.4,22.3,00.0,32.5,25.2,10.6,0000.0,0003.75,0002.12,0001.37
2022-04-30 09:09:00,,0823.3,4.99,0.00,23.4,22.3,00.0,32.4,25.1,10.6,0000.0,0003.86,0002.18,0001.39
2022-04-30 09:10:00,,0823.3,5.01,0.00,23.4,22.3,00.0,32.4,25.1,10.5,0000.0,0004.12,0002.23,0001.39
2022-04-30 09:11:00,,0823.4,4.99,0.00,23.4,22.2,00.0,32.4,25.1,10.6,0000.0,0004.11,0002.22,0001.40
2022-04-30 09:12:00,,0823.4,5.00,0.00,23.3,22.2,00.0,32.4,25.1,10.6,0000.0,0004.88,0002.23,0001.41
2022-04-30 09:13:00,,0823.3,5.00,0.00,23.3,22.2,00.0,32.4,25.0,10.6,0000.0,0005.02,0002.26,0001.42
2022-04-30 09:14:00,,0823.3,4.99,0.00,23.3,22.2,00.0,32.4,25.0,10.6,0000.0,0005.16,0002.32,0001.42
2022-04-30 09:15:00,,0823.4,5.01,0.00,23.2,22.2,00.0,32.3,24.9,10.6,0000.0,0005.27,0002.36,0001.43
2022-04-30 09:16:00,,0823.4,5.00,0.00,23.2,22.1,00.0,32.3,24.9,10.6,0000.0,0005.18,0002.32,0001.44
2022-04-30 09:17:00,,0823.3,4.99,0.00,23.2,22.1,00.0,32.3,24.8,10.6,0000.0,0005.08,0002.30,0001.45
2022-04-30 09:18:00,,0823.4,4.99,0.00,23.2,22.0,00.0,32.3,24.8,10.6,0000.0,0004.94,0002.27,0001.47
2022-04-30 09:19:00,,0823.6,5.00,0.00,23.2,22.0,00.0,32.3,24.8,10.7,0000.0,0004.97,0002.25,0001.48
2022-04-30 09:20:00,,0823.6,5.00,0.00,23.1,22.0,00.0,32.2,24.8,10.7,0000.0,0005.56,0002.27,0001.48
2022-04-30 09:21:00,,0823.4,5.00,0.00,23.1,22.0,00.0,32.2,24.8,10.7,0000.0,0005.51,0002.26,0001.50
2022-04-30 09:22:00,,0823.4,5.00,0.00,23.1,22.0,00.0,32.2,24.9,10.7,0000.0,0005.41,0002.24,0001.51
2022-04-30 09:23:00,,0823.4,4.99,0.00,23.1,22.0,00.0,32.2,24.9,10.7,0000.0,0005.79,0002.23,0001.52
2022-04-30 09:24:00,,0823.5,5.01,0.00,23.1,22.0,00.0,32.2,24.8,10.8,0000.0,0005.58,0002.14,0001.51
2022-04-30 09:25:00,,0823.6,4.99,0.00,23.1,21.9,00.0,32.2,24.7,10.8,0000.0,0005.54,0002.09,0001.50
2022-04-30 09:26:00,,0823.6,4.99,0.00,23.1,21.8,00.0,32.2,24.6,10.7,0000.0,0005.56,0002.07,0001.49
2022-04-30 09:27:00,,0823.6,5.00,0.00,23.1,21.8,00.0,32.2,24.7,10.8,0000.0,0005.56,0002.09,0001.50
2022-04-30 09:28:00,,0823.5,5.00,0.00,23.1,21.8,00.0,32.2,24.7,10.7,0000.0,0005.56,0002.09,0001.49
2022-04-30 09:29:00,,0823.3,5.01,0.00,23.1,21.9,00.0,32.1,24.8,10.6,0000.0,0005.61,0002.11,0001.47
2022-04-30 09:30:00,,0823.4,4.98,0.00,23.1,21.9,00.0,32.1,24.8,10.6,0000.0,0005.62,0002.13,0001.47
2022-04-30 09:31:00,,0823.3,5.00,0.00,23.1,21.9,00.0,32.1,24.9,10.6,0000.0,0005.09,0002.14,0001.49
2022-04-30 09:32:00,,0823.3,4.99,0.00,23.1,21.9,00.0,32.1,24.9,10.6,0000.0,0005.15,0002.11,0001.49
2022-04-30 09:33:00,,0823.4,5.00,0.00,23.0,21.9,00.0,32.1,24.8,10.6,0000.0,0005.28,0002.16,0001.50
2022-04-30 09:34:00,,0823.3,5.00,0.00,23.0,21.9,00.0,32.1,24.8,10.6,0000.0,0004.63,0002.21,0001.51
2022-04-30 09:35:00,,0823.3,5.01,0.00,23.0,21.9,00.0,32.1,24.7,10.7,0000.0,0004.16,0002.24,0001.52
2022-04-30 09:36:00,,0823.4,5.00,0.00,23.0,21.9,00.0,32.1,24.7,10.7,0000.0,0004.32,0002.32,0001.54
2022-04-30 09:37:00,,0823.4,5.00,0.00,22.9,21.9,00.0,32.0,24.6,10.7,0000.0,0004.11,0002.29,0001.54
2022-04-30 09:38:00,,0823.5,4.99,0.00,22.9,21.8,00.0,32.0,24.6,10.8,0000.0,0004.29,0002.30,0001.54
2022-04-30 09:39:00,,0823.6,5.00,0.00,22.9,21.8,00.0,32.0,24.5,10.8,0000.0,0004.41,0002.34,0001.56
2022-04-30 09:40:00,,0823.6,5.01,0.00,22.9,21.7,00.0,32.0,24.5,10.8,0000.0,0004.54,0002.35,0001.57
2022-04-30 09:41:00,,0823.4,4.99,0.00,22.9,21.7,00.0,32.0,24.4,10.9,0000.0,0004.54,0002.34,0001.57
2022-04-30 09:42:00,,0823.4,5.00,0.00,22.9,21.7,00.0,32.0,24.5,10.9,0000.0,0004.51,0002.33,0001.56
2022-04-30 09:43:00,,0823.3,5.02,0.00,22.9,21.7,00.0,32.0,24.6,10.8,0000.0,0004.25,0002.31,0001.56
2022-04-30 09:44:00,,0823.3,5.00,0.00,22.9,21.7,00.0,32.0,24.6,10.7,0000.0,0004.44,0002.32,0001.55
2022-04-30 09:45:00,,0823.4,5.00,0.00,22.9,21.7,00.0,32.0,24.6,10.8,0000.0,0004.43,0002.27,0001.55
2022-04-30 09:46:00,,0823.3,4.99,0.00,22.9,21.7,00.0,31.9,24.7,10.8,0000.0,0004.36,0002.25,0001.54
2022-04-30 09:47:00,,0823.3,4.99,0.00,22.9,21.7,00.0,31.9,24.6,10.8,0000.0,0004.18,0002.18,0001.54
2022-04-30 09:48:00,,0823.3,5.01,0.00,22.8,21.7,00.0,31.9,24.6,10.8,0000.0,0004.19,0002.20,0001.56
2022-04-30 09:49:00,,0823.3,5.01,0.00,22.8,21.7,00.0,31.9,24.5,10.7,0000.0,0004.80,0002.25,0001.59
2022-04-30 09:50:00,,0823.4,5.00,0.00,22.8,21.7,00.0,31.9,24.5,10.7,0000.0,0005.67,0002.29,0001.60
2022-04-30 09:51:00,,0823.4,5.00,0.00,22.8,21.7,00.0,31.9,24.4,10.7,0000.0,0005.80,0002.31,0001.61
2022-04-30 09:52:00,,0823.3,4.99,0.00,22.8,21.6,00.0,31.9,24.5,10.6,0000.0,0006.02,0002.35,0001.62
2022-04-30 09:53:00,,0823.4,5.00,0.00,22.8,21.6,00.0,31.8,24.5,10.5,0000.0,0006.03,0002.38,0001.63
2022-04-30 09:54:00,,0823.4,5.01,0.00,22.7,21.6,00.0,31.8,24.5,10.5,0000.0,0006.35,0002.41,0001.63
2022-04-30 09:55:00,,0823.5,5.02,0.00,22.7,21.5,00.0,31.8,24.3,10.6,0000.0,0006.45,0002.39,0001.64
2022-04-30 09:56:00,,0823.6,4.99,0.00,22.7,21.4,00.0,31.8,24.2,10.7,0000.0,0006.35,0002.45,0001.64
2022-04-30 09:57:00,,0823.5,5.00,0.00,22.7,21.4,00.0,31.8,24.2,10.7,0000.0,0006.36,0002.46,0001.65
2022-04-30 09:58:00,,0823.5,5.01,0.00,22.7,21.4,00.0,31.8,24.2,10.7,0000.0,0006.52,0002.52,0001.67
2022-04-30 09:59:00,,0823.5,4.99,0.00,22.6,21.4,00.0,31.7,24.2,10.7,0000.0,0006.82,0002.60,0001.67
